This is the latest recevied weather packets stored in our database for station/object WW5JC. If no packets are shown the sender has not sent any weather packets the latest 10 day(s).
| Time | Temp. | Humidity | Pressure | Rain* | Wind** | Luminosity | Snow |
|---|---|---|---|---|---|---|---|
| 1788394184 | 32.78° C | 55% | 1015 hPa | 0 mm | - | 23 W/m² | - |
| 1788393879 | 32.78° C | 55% | 1015.1 hPa | 0 mm | - | 24 W/m² | - |
| 1788393577 | 32.78° C | 56% | 1014.7 hPa | 0 mm | - | 32 W/m² | - |
| 1788393273 | 32.78° C | 56% | 1015.1 hPa | 0 mm | - | 28 W/m² | - |
| 1788392972 | 33.33° C | 57% | 1014.7 hPa | 0 mm | - | 33 W/m² | - |
| 1788392667 | 33.33° C | 55% | 1014.9 hPa | 0 mm | - | 32 W/m² | - |
| 1788392366 | 33.33° C | 55% | 1014.7 hPa | 0 mm | - | 35 W/m² | - |
| 1788392060 | 33.89° C | 54% | 1014.7 hPa | 0 mm | - | 62 W/m² | - |
| 1788391760 | 33.89° C | 53% | 1014.6 hPa | 0 mm | - | 89 W/m² | - |
| 1788391449 | 33.89° C | 53% | 1014.5 hPa | 0 mm | - | 99 W/m² | - |
| 1788391148 | 34.44° C | 52% | 1014.4 hPa | 0 mm | - | 109 W/m² | - |
| 1788390843 | 34.44° C | 52% | 1014.5 hPa | 0 mm | - | 121 W/m² | - |
| 1788390538 | 34.44° C | 52% | 1014.5 hPa | 0 mm | - | 132 W/m² | - |
| 1788390238 | 34.44° C | 52% | 1014.4 hPa | 0 mm | - | 154 W/m² | - |
| 1788389931 | 35° C | 52% | 1014.5 hPa | 0 mm | - | 189 W/m² | - |
| 1788389627 | 34.44° C | 52% | 1014.2 hPa | 0 mm | - | 216 W/m² | - |
| 1788389325 | 34.44° C | 53% | 1014.1 hPa | 0 mm | - | 66 W/m² | - |
| 1788389020 | 35° C | 52% | 1014.4 hPa | 0 mm | - | 59 W/m² | - |
| 1788388718 | 35.56° C | 50% | 1014.1 hPa | 0 mm | - | 225 W/m² | - |
| 1788388417 | 35.56° C | 51% | 1014 hPa | 0 mm | - | 243 W/m² | - |
| 1788388117 | 35.56° C | 51% | 1014.1 hPa | 0 mm | - | 243 W/m² | - |
| 1788387815 | 35.56° C | 50% | 1014.3 hPa | 0 mm | - | 254 W/m² | - |
| 1788387510 | 35.56° C | 49% | 1014.2 hPa | 0 mm | - | 263 W/m² | - |
| 1788387209 | 35.56° C | 51% | 1014.1 hPa | 0 mm | - | 284 W/m² | - |
| 1788386905 | 35.56° C | 52% | 1014.4 hPa | 0 mm | - | 192 W/m² | - |
* Rain latest hour (hover to see other rain measurements)
** Current wind speed in m/s (hover to see current wind gust speed)